Tracking 19562 objects as of 24-Mar-2019
HD Live streaming from Space Station
objects crossing your sky now

COSMOS 1959

Track COSMOS 1959 now!
10-day predictions
COSMOS 1959 is classified as:


NORAD ID: 19324
Int'l Code: 1988-062A
Perigee: 960.6 km
Apogee: 1,009.2 km
Inclination: 82.9 °
Period: 104.6 minutes
Semi major axis: 7355 km
RCS: 2.5206 m2 (large)
Launch date: July 18, 1988
Source: Commonwealth of Independent States (former USSR) (CIS)
Launch site: PLESETSK MISSILE AND SPACE COMPLEX (PKMTR)
aabbcc
Your satellite tracking list
Your tracking list is empty




NASA's NSSDC Master Catalog

Two Line Element Set (TLE):
1 19324U 88062A   19082.92299848 +.00000025 +00000-0 +10158-4 0  9990
2 19324 082.9468 282.0406 0033078 308.5820 164.2746 13.76092898540289
Source of the keplerian elements: AFSPC